Torna al catalogo

SATCOM 3

AttivoComunicazioniHEO
NORAD 11635·PAYLOAD·🇺🇸 United States

Lanciato Dec 7, 1979 da Cape Canaveral Space Force Station

Loading…

Prossimi Passaggi (prossime 24 ore)

TLE

AggiornatoSource: Space-Track

Epoca: Sep 14, 2026, 08:25 UTC

1 11635U 79101A   26257.35116502 -.00000151  00000-0  00000-0 0  9997
2 11635   8.9384  73.3681 4820374 123.9632 281.1564  1.82526301225590

Traccia SATCOM 3 in tempo reale con AllMySat

Download on the App Store